Ana Sayfa
METAR-TAF:

METAR-TAF

Havaalanları :

Erbil Havalimanı

Erbil, Irak

Enlem: 36-14-15N, Boylam: 43-57-47E, yükseklik: 415 m

Güncel hava durumu gözlemi

Rapor saat 02:00 UTC de 16 dakika önce yapıldı.
Sakin rüzgar
Sıcaklık 1°C
Nem 86%
Basınç 1021 hPa
Görüş mesafesi: 9000 m

METAR: ORER 240200Z 00000KT 9000 NSC 01/M01 Q1021 NOSIG

Saat: 05:16 (02:16 UTC)

Tahmin

Rapor saat 23:00 UTC de 3 saat ve 16 dakika önce yapıldı.
Ayın 24'si saat 00 UTC'den ayın 24'si saat 24 UTC'ye kadar geçerli Tahmin
Rüzgar değişken yönden 3 kt
Görüş mesafesi: 9000 m
Dönüşüyor
ayın 24'si saat 06 UTC'den ayın 24'si saat 08 UTC'ye kadar
Rüzgar güneydoğudan 8 kt

TAF: ORER 232300Z 2400/2424 VRB03KT 9000 NSC BECMG 2406/2408 13008KT

4.000'den fazla havaalanı için hava durumu gözlemleri ve tahminleri (METAR ve TAF raporları).

Kullanılabilir istasyonlar harita üzerinde sarı ve kırmızı noktalarla gösterilir.

İstasyonun adını görmek için fareyi noktanın üzerinde gezdirin.

Sonrasında hava gözlem ve tahminlerini görmek için tıklayın.

Haritayı değiştirmek için: yaklaştırmak için siyah artı işaretli yeşil düğmeye ve uzaklaştırmak için de eksi işaretli düğmeye hızla tıklayın; bitişik haritalar için yeşil okları kullanın.


METAR-TAF: